Date,TemperatureHighF,TemperatureAvgF,TemperatureLowF,DewpointHighF,DewpointAvgF,DewpointLowF,HumidityHigh,HumidityAvg,HumidityLow,PressureMaxIn,PressureMinIn,WindSpeedMaxMPH,WindSpeedAvgMPH,GustSpeedMaxMPH,PrecipitationSumIn
2013-1-1,14.6,11.5,10.1,6.0,4.0,3.1,73,71,68,29.13,29.12,0,0,0,0.00
2013-1-2,26.1,24.7,20.5,19.4,17.5,14.7,79,74,71,29.22,29.17,3,1,3,0.00
2013-1-3,28.1,25.6,18.5,24.0,20.3,11.5,86,80,73,29.20,29.09,6,2,6,0.00
2013-1-4,30.8,27.0,22.7,22.5,20.0,18.0,83,75,67,29.22,29.05,6,2,6,0.01
2013-1-5,33.8,29.1,20.5,27.0,24.1,16.4,86,81,76,29.32,29.08,11,4,11,0.00
2013-1-6,35.1,34.1,30.8,31.5,30.2,25.7,87,86,81,29.30,28.97,4,2,4,0.00
2013-1-7,36.0,31.4,27.2,26.5,24.3,21.5,82,75,66,29.41,29.20,12,6,12,0.04
2013-1-8,37.3,33.6,26.5,29.1,26.7,21.3,83,76,71,29.28,29.20,8,4,8,0.02
2013-1-9,44.1,40.2,33.7,33.3,28.3,24.2,79,63,49,29.45,29.14,10,5,10,0.11
2013-1-10,41.0,33.5,22.3,30.9,27.5,17.6,84,79,67,29.62,29.25,6,2,6,0.05
2013-1-11,51.8,44.1,34.9,49.0,41.4,30.5,94,90,84,29.23,28.84,7,4,7,0.84
2013-1-13,38.9,36.2,31.3,36.2,33.7,28.5,92,91,89,29.04,28.91,6,2,6,0.17
2013-1-14,28.1,22.6,16.2,24.1,16.6,11.9,85,78,73,29.46,29.11,3,2,3,0.00
2013-1-15,31.3,25.3,14.4,22.3,18.6,10.5,86,76,68,29.47,29.22,2,1,2,0.01
2013-1-16,21.8,21.8,21.8,18.2,18.2,18.2,86,86,86,29.00,29.00,2,2,2,0.00
2013-1-17,33.3,26.8,18.5,22.2,17.6,8.6,81,68,61,29.34,29.18,8,3,8,0.00
2013-1-18,32.6,32.3,32.0,22.4,22.2,22.0,66,66,66,29.03,29.02,9,7,9,0.00
2013-1-20,17.3,16.7,16.0,6.0,6.0,5.8,64,62,61,29.21,29.20,6,2,6,0.00
2013-1-21,16.6,12.5,3.2,10.2,3.7,-5.1,81,68,57,29.12,28.99,5,2,5,0.00
2013-1-22,11.0,6.2,-1.3,1.3,-2.2,-8.7,75,68,59,29.29,29.25,6,2,6,0.00
2013-1-23,19.1,14.1,1.8,10.2,6.0,-4.4,76,70,65,29.27,29.11,5,2,5,0.00
2013-1-24,17.8,13.7,7.0,7.0,3.8,0.7,82,65,51,29.60,29.51,5,2,5,0.01
2013-1-25,25.2,20.7,16.4,16.7,13.9,10.1,80,75,69,29.25,29.05,6,2,6,0.00
2013-1-26,22.0,21.5,20.9,16.7,16.5,16.2,82,81,80,29.27,29.25,2,2,2,0.00
2013-1-27,27.7,26.3,24.8,24.1,21.9,19.3,87,83,79,29.34,29.18,7,3,7,0.00
2013-1-28,44.3,39.3,34.0,42.4,36.9,31.6,93,91,89,29.08,28.91,6,2,6,0.12
2013-1-29,54.9,46.8,32.0,52.9,44.8,29.3,95,93,89,29.09,28.57,16,5,16,0.71
2013-1-30,55.8,49.2,34.4,53.5,46.7,30.8,93,91,87,28.55,28.22,14,5,14,0.58
2013-1-31,24.3,21.4,17.1,17.4,14.7,11.3,86,75,62,28.88,28.63,10,3,10,0.00
2013-2-1,21.2,17.7,13.9,10.5,9.1,7.1,82,69,61,29.24,28.93,6,3,6,0.00
2013-2-3,23.4,16.0,14.6,15.1,8.6,7.2,74,72,70,29.04,28.90,4,1,4,0.00
2013-2-4,27.5,22.6,15.1,20.0,16.1,7.4,82,76,71,29.04,28.93,2,0,2,0.00
2013-2-5,28.4,25.1,19.1,23.8,18.9,14.7,88,77,63,28.99,28.86,6,3,6,0.00
2013-2-6,32.2,25.6,9.4,20.4,16.7,5.2,84,69,57,29.33,29.27,4,2,4,0.10
2013-2-10,37.1,35.6,34.6,33.5,30.0,27.8,87,80,72,28.93,28.79,7,4,7,0.09
2013-2-11,38.9,35.2,31.0,30.6,27.2,25.6,80,73,68,28.90,28.65,9,5,9,0.00
2013-2-12,32.6,30.9,29.2,25.6,23.7,22.9,80,74,69,29.09,28.91,5,2,5,0.00
2013-2-13,39.2,33.3,26.6,26.7,24.5,21.2,80,70,59,28.89,28.80,4,2,4,0.00
2013-2-14,39.1,36.5,31.9,34.0,32.3,28.8,88,85,81,28.82,28.74,9,5,9,0.00
2013-2-15,29.5,27.3,24.1,17.3,15.7,13.8,70,61,54,29.14,29.07,7,3,7,0.00
2013-2-16,17.6,17.4,17.3,12.4,12.2,12.1,80,80,80,29.09,29.08,0,0,0,0.00
2013-2-17,19.8,18.3,17.5,7.8,7.3,6.9,64,62,59,29.23,29.22,2,1,2,0.00
2013-2-18,40.3,34.5,21.4,32.9,24.1,14.7,75,66,56,29.11,28.76,13,5,13,0.01
2013-2-19,31.5,25.6,17.8,28.1,19.6,10.9,87,78,70,28.94,28.62,7,4,7,0.00
2013-2-20,22.5,20.7,16.2,14.5,12.0,9.0,76,69,64,29.27,29.11,10,4,10,0.00
2013-2-21,27.7,22.7,18.9,16.0,14.1,12.8,78,70,61,29.42,29.35,4,2,4,0.01
2013-2-22,32.2,29.7,23.8,28.9,24.6,19.9,89,81,78,29.06,28.95,5,2,5,0.00
2013-2-23,32.6,31.6,31.1,25.1,25.0,24.8,78,76,73,28.95,28.95,2,2,2,0.00
2013-2-24,30.8,24.1,18.7,25.4,18.5,12.9,82,79,77,29.20,29.04,3,1,3,0.00
2013-2-25,43.2,34.7,13.9,28.4,24.3,9.1,83,67,53,29.28,29.20,5,1,5,0.05
2013-2-26,38.2,34.2,29.7,30.5,26.7,22.7,90,74,64,29.04,28.68,5,2,5,0.12
2013-2-27,37.4,36.1,33.1,34.2,32.6,30.8,91,87,86,28.62,28.58,4,2,4,0.24
2013-2-28,36.7,35.0,32.4,32.9,31.1,29.1,92,86,80,28.87,28.69,6,3,6,0.19
2013-3-1,26.5,25.3,24.5,20.8,20.2,19.5,82,80,78,29.15,29.11,8,3,8,0.00
2013-3-3,26.3,22.6,19.8,17.5,14.8,12.8,74,72,69,29.09,29.07,2,0,2,0.00
2013-3-4,35.6,27.9,10.4,18.8,16.3,5.7,83,62,48,29.19,29.14,3,1,3,0.09
2013-3-5,38.5,32.1,23.9,25.4,23.0,19.3,82,69,58,29.11,28.91,5,2,5,0.07
2013-3-6,42.1,36.5,31.3,31.1,28.4,26.2,81,72,64,29.26,29.12,5,2,5,0.02
2013-3-7,35.5,32.9,27.5,29.9,25.7,19.4,87,75,66,29.44,29.32,5,2,5,0.01
2013-3-8,46.8,37.2,19.4,31.0,25.8,15.3,85,64,50,29.54,29.46,3,1,3,0.00
2013-3-9,38.7,34.6,29.5,30.7,28.7,25.6,85,79,71,29.41,29.39,4,2,4,0.00
2013-3-10,52.7,52.3,51.8,39.6,39.6,39.5,63,62,61,28.92,28.88,10,5,10,0.00
2013-3-11,52.0,46.9,38.9,46.0,43.5,34.5,91,88,62,28.88,28.56,9,4,9,0.43
2013-3-12,36.9,34.2,28.6,29.8,27.7,23.8,83,77,71,28.97,28.87,8,3,8,0.00
2013-3-13,32.0,28.4,25.4,25.4,19.9,14.3,83,70,61,29.22,28.96,10,5,10,0.01
2013-3-14,40.7,33.4,23.9,22.6,19.8,14.0,76,58,45,29.30,29.14,7,2,7,0.02
2013-3-15,38.2,34.7,29.2,31.6,27.7,18.6,83,76,61,29.13,28.93,5,2,5,0.01
2013-3-17,27.0,24.2,20.3,14.5,13.2,11.7,69,63,59,29.30,29.26,1,0,1,0.00
2013-3-18,34.7,31.1,20.2,31.1,25.9,11.9,90,81,70,29.25,28.64,5,2,5,0.02
2013-3-19,33.5,25.8,23.8,30.0,19.0,15.6,87,75,68,28.98,28.68,8,4,8,0.00
2013-3-20,29.9,24.6,17.3,17.3,14.8,10.9,77,66,55,28.99,28.94,9,3,9,0.00
2013-3-21,31.3,28.1,20.3,24.7,21.6,16.2,84,76,70,28.98,28.90,8,3,8,0.02
2013-3-22,40.0,32.2,25.0,24.5,21.4,18.2,77,65,50,29.08,28.98,6,2,6,0.01
2013-3-23,28.4,28.1,27.5,20.9,20.6,20.0,73,73,73,29.08,29.07,0,0,0,0.00
2013-3-28,52.2,43.4,31.7,29.7,27.1,22.3,76,54,39,29.32,29.28,6,2,6,0.00
2013-3-29,54.7,45.1,31.3,25.9,24.4,22.7,70,46,31,29.34,29.26,2,1,2,0.00
2013-3-31,45.4,45.2,45.0,38.9,37.8,36.9,79,75,72,28.77,28.75,7,5,7,0.00
2013-4-1,41.4,32.8,27.4,32.8,17.9,13.4,77,55,41,29.14,28.77,8,5,8,0.02
2013-4-2,41.4,34.7,23.4,17.6,15.2,13.3,72,46,34,29.21,29.14,8,4,8,0.00
2013-4-3,43.7,35.6,31.0,16.3,14.7,13.1,52,43,33,29.47,29.43,6,4,6,0.00
2013-4-4,60.5,48.5,30.2,23.1,20.3,17.2,60,35,21,29.30,29.02,7,3,7,0.00
2013-4-5,49.1,42.0,33.3,25.0,20.5,18.4,66,43,32,29.27,29.02,8,3,8,0.00
2013-4-6,34.9,34.9,34.9,18.6,18.6,18.6,51,51,51,29.28,29.28,2,2,2,0.00
2013-4-7,41.2,39.2,37.3,30.3,29.3,28.4,71,68,65,29.10,29.09,0,0,0,0.00
2013-4-8,63.9,49.2,34.2,54.8,42.0,29.5,88,77,59,29.06,28.78,11,3,11,0.15
2013-4-9,52.4,47.7,43.7,44.6,42.5,39.8,88,82,71,29.14,28.97,6,2,6,0.12
2013-4-10,41.9,39.0,37.6,39.8,36.7,35.2,93,91,91,29.07,28.98,6,2,6,0.46
2013-4-11,37.6,36.8,36.4,34.9,34.1,33.4,92,90,89,29.02,28.83,9,2,9,0.05
2013-4-12,41.9,39.6,36.7,38.6,35.8,33.5,91,86,77,28.77,28.65,4,2,4,0.02
2013-4-13,40.1,37.8,36.4,31.2,29.3,27.7,80,71,67,29.05,28.88,7,3,7,0.01
2013-4-14,41.8,39.6,34.9,33.8,31.6,29.1,82,73,64,29.18,29.03,6,2,6,0.02
2013-4-15,68.6,61.7,43.9,53.5,49.9,38.4,82,66,55,29.03,28.96,16,8,16,0.02
2013-4-16,61.9,55.1,47.0,43.8,41.8,38.7,85,63,43,29.21,29.10,5,2,5,0.00
2013-4-17,64.3,53.7,43.9,40.9,38.0,31.1,82,56,41,29.40,29.20,5,2,5,0.40
2013-4-18,73.8,63.2,54.2,64.3,57.9,51.0,91,83,72,28.83,28.73,16,8,16,0.45
2013-4-19,42.7,40.5,37.4,37.7,32.2,29.6,88,73,64,28.80,28.52,10,5,10,0.00
2013-4-20,33.7,32.3,31.3,19.5,18.9,18.3,59,58,56,29.18,29.12,7,4,7,0.00
2013-4-21,48.4,39.8,36.7,28.5,24.2,22.7,59,54,46,29.55,29.53,2,2,2,0.00
2013-4-22,67.5,55.9,36.7,37.3,34.2,30.5,78,46,30,29.46,29.29,8,3,8,0.00
2013-4-23,71.3,62.3,53.3,51.1,44.9,36.1,86,56,40,29.15,28.92,13,6,13,0.16
2013-4-24,54.0,38.9,34.9,49.9,35.8,32.0,90,89,86,28.99,28.89,5,2,5,0.70
2013-4-25,48.4,42.8,39.2,41.8,35.4,27.8,84,75,59,29.39,29.16,7,4,7,0.09
2013-4-26,62.1,50.9,31.5,36.6,34.0,27.0,84,55,38,29.51,29.43,11,5,11,0.00
2013-4-27,66.4,51.4,38.3,41.4,37.4,33.0,81,63,39,29.40,29.34,6,3,6,0.00
2013-4-28,68.0,60.8,54.4,52.3,45.9,39.4,80,60,38,29.33,28.99,6,2,6,0.10
2013-4-29,71.3,60.6,54.7,54.9,53.0,51.5,89,77,55,29.03,28.99,3,1,3,0.00
2013-4-30,77.4,66.5,57.2,59.1,55.8,52.7,88,70,51,29.16,29.04,12,6,12,0.23
2013-5-1,87.5,78.9,65.7,61.1,58.8,52.0,73,51,36,29.31,29.28,6,3,6,0.00
2013-5-2,81.0,70.0,58.9,57.8,52.3,45.6,69,54,45,29.34,29.25,8,3,8,0.00
2013-5-3,85.3,76.4,61.9,56.3,51.4,41.3,53,43,26,29.22,29.17,6,3,6,0.00
2013-5-4,68.2,67.1,66.1,47.2,47.1,47.0,50,48,47,29.22,29.22,4,3,4,0.00
2013-5-5,73.1,69.2,61.4,37.8,36.5,33.9,36,31,28,29.14,29.13,2,2,2,0.00
2013-5-6,81.7,70.8,54.0,51.2,46.1,41.7,63,42,32,29.17,29.08,6,2,6,0.00
2013-5-7,83.9,73.3,57.2,54.5,51.8,40.8,65,48,34,29.16,29.10,5,2,5,0.00
2013-5-8,81.9,74.4,62.3,51.4,48.0,43.9,51,40,30,29.11,29.05,3,1,3,0.00
2013-5-9,83.3,75.6,67.0,55.5,51.0,45.5,64,43,32,29.07,29.00,4,2,4,0.01
2013-5-10,64.3,55.6,41.9,59.3,50.1,37.7,85,82,76,28.96,28.86,5,2,5,0.09
2013-5-11,49.0,45.3,41.8,44.0,41.1,37.8,86,85,83,28.96,28.93,1,1,1,0.00
2013-5-13,50.6,45.9,39.6,30.2,27.8,25.5,57,49,40,29.24,29.18,5,3,5,0.00
2013-5-14,79.0,65.8,53.6,51.2,43.8,35.9,62,46,37,29.03,28.85,6,3,6,0.00
2013-5-15,84.6,73.9,54.0,55.2,50.7,43.9,69,46,28,28.86,28.74,6,3,6,0.00
2013-5-16,83.0,72.3,52.2,50.5,47.3,41.1,66,43,29,29.00,28.91,3,1,3,0.00
2013-5-17,76.0,68.0,56.3,47.2,44.4,41.3,59,43,32,29.24,29.20,3,1,3,0.00
2013-5-18,71.8,68.8,66.4,47.4,46.9,46.5,49,46,42,29.23,29.23,1,1,1,0.00
2013-5-19,78.7,75.9,72.5,59.4,58.9,58.3,61,56,51,29.02,29.01,2,2,2,0.00
2013-5-20,70.7,66.3,62.3,63.6,60.4,57.1,83,81,78,29.03,29.01,2,1,2,0.00